7 * 24
多渠道服务支持
STARLINK-37327(NORAD编号68736)是美国SpaceX公司星链(Starlink)星座中的一颗低轨互联网通信卫星,属于星链项目第二批组网卫星。星链项目计划部署近1.2万颗低轨卫星,构建覆盖全球的卫星互联网系统,该星为550公里左右近地轨道部署的Ku/Ka频段卫星,可为全球用户提供高带宽低延迟互联网接入服务,助力实现偏远地区网络覆盖、应急通信等场景应用,是SpaceX推进全球卫星互联网络建设的组成单元。
美国
(US)
| 数据来源 | 国际轨道数据 |
| 星历时间: | 2026-05-24T12:00:02+0800 1天前 查看轨道信息 |
| 半长轴: | 6760.251km |
| 偏心率: | 0.0001811 |
| 轨道倾角: | 97.286° |
| 近地点辐角 | 109.719° |
| 升交点赤经 | 7.776° |
| 平近点角 | 181.736° |
| 近地点: | 380.889km |
| 远地点: | 383.339km |
| 周期: | 92.194分钟 |
| 每日圈数: | 15.619193 |